NOAA 17 DEB, 48723

Orbit data source: Space-Track

NOAA 17 DEB, 48723 is space debris in SSO originally from a launch on Mon, 24 Jun 2002 UTC launched from the Air Force Western Test Range (AFWTR). Debris objects in space refer to the collection of defunct objects orbiting the Earth. Examples of debris include non-operational satellites, rocket bodies, and fragments generated from explosions, collisions, or faulty payload assembly.

Loading next visibility...
Identifier
48723, 2002-032BG
Orbit
SSO
Country
Flag of USUS
Related business
Manufacturer
Unknown
Mission
Spacecraft
Bus & Motor
Unknown
Mass
Unknown
Launch date (UTC)
2002-06-24 (24 years ago)
Launch vehicle
Unknown
Launch site
Air Force Western Test Range (AFWTR)
Object type
Payload
Rocket body
Debris
Shape & HBR
Unknown shape, 0.1 m
Radar Cross Section
Medium (>0.1 m² and <1 m²)

Expand to show TLE details & history
Last TLE update: 2 days ago

TLE from 2 days ago
0 NOAA 17 DEB
1 48723U 02032BG  26171.43072936  .00004665  00000-0  11971-2 0  9994
2 48723  98.8152 164.3406 0018169 228.1038 131.8606 14.50676031274935
Epoch: 2026-06-20T10:20Z
TLE epoch observation values (Epoch: 2026-06-20T10:20:15.016Z)
Latitude
-0.00003°
Longitude
100.63258°
Altitude
735.019 km
Speed
7.483 km/s
True Right ascension
10h 57m 21s
True Declination
0° 00' 00"
Sunlit
Object was in daylight at epoch
Visualization orbit readout
Latitude
Unknown
Longitude
Unknown
Altitude
Unknown
Speed
Unknown
Apparent Right ascension
Unknown
Apparent Declination
Unknown
Sunlit
N/A
Visualization observer readout
Local Sidereal Time
21:37:44
Azimuth
Unknown
Elevation
Unknown
Doppler factor
Unknown
Orbital elements
Apogee altitude
733.462 km
Perigee altitude
707.667 km
Semi-major axis
7,098.701 km
Eccentricity
0.00182
Inclination
98.8152°
RAAN
164.3406°
Arg. of periapsis
228.1038°
True anomaly
132.01543°
Mean anomaly
131.8606°
Eccentric anomaly
131.93804°
Mean motion
3.6289 °/min
Orbital period
99.2 mins
BSTAR
0.0011971
Loading maneuver chart data...
Computing Atmospheric mass density...

Documentation

Showing up to 5 results
|